Regional Weather Roundup
Issued by NWS Lake Charles, LA

Home | Current Version | Previous Version | Text Only | Print | Product List | Glossary On
Versions: 1 2 3 4 5 6 7 8 9 10 11 12 13 14 15 16 17 18 19 20 21 22 23 24 25 26 27 28 29 30 31 32 33 34 35 36 37 38 39 40 41 42 43 44 45 46 47 48 49 50
000
ASUS44 KLCH 111410
RWRLCH
REGIONAL WEATHER ROUNDUP
NATIONAL WEATHER SERVICE LAKE CHARLES LA
800 AM CST SUN DEC 11 2016

Note: "fair" indicates few or no clouds below 12,000 feet with no
significant weather and/or obstructions to visibility.


ACROSS SOUTHEAST TEXAS

CITY           SKY/WX    TMP DP  RH WIND       PRES   REMARKS
BEAUMONT       CLOUDY    58  54  86 E9        30.12S
BEAUMONT CITY  CLOUDY    57  54  90 E13       30.10F
ORANGE         CLOUDY    53  51  93 E8        30.14F
JASPER         MOCLDY    51  45  80 SE6       30.14S
$$

ACROSS CENTRAL LOUISIANA

CITY           SKY/WX    TMP DP  RH WIND       PRES   REMARKS
LEESVILLE      CLOUDY    49  41  74 SE12      30.13F
FULLERTON      CLOUDY    49  38  65 CALM      30.13F
ALEXANDRIA INT CLOUDY    47  34  60 SE12      30.16S
ESLER FIELD    CLOUDY    48  34  58 SE6       30.18S
DERIDDER       CLOUDY    48  37  65 SE8       30.16F
OAKDALE        CLOUDY    47  38  71 SE3       30.18S
OPELOUSAS      PTSUNNY   47  35  61 SE7       30.19S
$$

ACROSS SOUTHWEST AND SOUTH CENTRAL LOUISIANA

CITY           SKY/WX    TMP DP  RH WIND       PRES   REMARKS
SULPHUR        CLOUDY    53  47  80 MISG      30.16F
LAKE CHARLES   CLOUDY    51  46  83 SE9       30.15F
CHENNAULT INT  NOT AVBL
CAMERON PHI    PTSUNNY   59  57  94 SE14      30.13S
DEQUINCY       CLOUDY    50  44  80 SE6       30.15S
JENNINGS       PTSUNNY   48  41  76 SE10      30.17F
LAFAYETTE      MOSUNNY   51  40  65 VRB6      30.19F
NEW IBERIA     SUNNY     51  39  63 SE8       30.19F
ABBEVILLE      CLOUDY    48  41  76 E6        30.19R
PATTERSON      SUNNY    N/A N/A N/A E9        30.22F
SALT POINT     NOT AVBL
$$

SELECTED SITES ACROSS THE REGION

CITY           SKY/WX    TMP DP  RH WIND       PRES   REMARKS
HOUSTON BUSH   LGT RAIN  65  60  84 S8        30.08R
HOUSTON HOBBY  CLOUDY    67  62  84 SW10      30.08S
GALVESTON      MOCLDY    67  63  87 S14       30.09S
COLLEGE STAT   CLOUDY    61  59  93 S14       30.03S
CONROE         CLOUDY    58  56  93 SE5       30.06F
HUNTSVILLE     MOCLDY    61  56  83 S10G17    30.03F
LUFKIN         CLOUDY    52  48  86 SE9       30.06S
SHREVEPORT     CLOUDY    51  34  52 SE12      30.07S
MONROE         CLOUDY    47  29  49 S9        30.17F
NATCHEZ MS     CLOUDY    46  27  46 SE15      30.19F
BATON ROUGE    SUNNY     43  34  70 E7        30.23S
N.O. INTL ARPT MOSUNNY   51  46  83 E3        30.24R
SLIDELL        SUNNY     45  29  53 NE3       30.24F
$$

MARINE REPORTS

STATION/POSITION TIME  SKY/WX   TEMP    WIND        PRES    VSBY
                                AIR SEA DIR/SP/G
                 (UTC)          (F)     (DEG/KT/KT) (MB)    (MI)
BUOY 30 S HIGH I 1250            68 65  160/ 14/ 16 1019.1
WVE H/P(F/S)=  5/ 6

SEA RIM ST PARK  1300            61     120/  6/  7 1020.3S
PORT ARTHUR      1342               55   90/  5/  7 1020.2F
SABINE PASS N    1348               57  120/  7/  8 1021.1S
TEXAS POINT      NOT AVBL
CALCASIEU PASS   1348            58 53  140/ 11/ 14   N/A
LK CHARLES BEACH 1348            50 53              1021.3F
MARSH ISLAND     1300            53                   N/A
FRESH WATER LOCK 1348            54 51  100/  6/ 15 1022.7R
AMERADA PASS     1348            49 53   90/  8/ 12 1022.9S
$$



USA.gov is the U.S. government's official web portal to all federal, state and local government web resources and services.